Showing default

IRIDIUM 166, 43570

Orbit data source: Space-Track

IRIDIUM 166, 43570 is a payload satellite owned by Iridium (US) in LEO that was launched on Wed, 25 Jul 2018 UTC via an FALCON 9 launch vehicle from the Air Force Western Test Range (AFWTR). Payload-class satellites include a variety of spacecraft equipped with specific instruments for various scientific and technological missions. These include communications satellites like Starlink; space stations such as the ISS; scientific satellites like the Hubble; Earth observation satellites from companies like Planet Labs, Umbra, and HawkEye 360; GPS; miniature CubeSats for education and research; and military/defense satellites.

Loading next visibility...
Identifier
43570, 2018-061B
Orbit
LEO
Country
Flag of USUS
Related business
Manufacturer
NGIS SSG Gilbert
Mission
Operational Commercial Communications
Bus & Motor
ELITEBUS, Unknown motor
Mass
860 kg wet, 700 kg dry
Launch date (UTC)
2018-07-25 (8 years ago)
Launch vehicle
FALCON 9
Launch site
Air Force Western Test Range (AFWTR)
Object type
Payload
Rocket body
Debris
Shape & HBR
Trap Box + 2 Pan, 4.8 m
Radar Cross Section
10.154 m², Large (>1 m²)

Expand to show TLE details & history
Last TLE update: 7 hours ago

TLE from 7 hours ago
0 IRIDIUM 166
1 43570U 18061B   26034.13016763  .00000074  00000-0  19538-4 0  9998
2 43570  86.3971 112.8225 0002067  95.7311 264.4120 14.34218091394184
Epoch: 2026-02-03T03:07Z
TLE epoch observation values (Epoch: 2026-02-03T03:07:26.483Z)
Latitude
-0.00006°
Longitude
-67.35337°
Altitude
780.861 km
Speed
7.463 km/s
True Right ascension
07h 31m 17s
True Declination
0° 00' 00"
Sunlit
Object was in full shadow at epoch
Visualization orbit readout
Latitude
Unknown
Longitude
Unknown
Altitude
Unknown
Speed
Unknown
Apparent Right ascension
Unknown
Apparent Declination
Unknown
Sunlit
N/A
Visualization observer readout
Local Sidereal Time
11:42:01
Azimuth
Unknown
Elevation
Unknown
Doppler factor
Unknown
Orbital elements
Apogee altitude
776.109 km
Perigee altitude
773.152 km
Semi-major axis
7,152.768 km
Eccentricity
0.00021
Inclination
86.3971°
RAAN
112.8225°
Arg. of periapsis
95.7311°
True anomaly
264.38843°
Mean anomaly
264.412°
Eccentric anomaly
264.40021°
Mean motion
3.58783 °/min
Orbital period
100.34 mins
BSTAR
0.000019538
Loading maneuver chart data...
Computing Atmospheric mass density...
Loading historical data...
Loading historical data...
Loading historical data...
Loading historical data...
Loading historical data...
Loading historical data...
Loading historical data...

Documentation

Showing up to 5 results
|